�������l�o���
Date,Time,MP-1(��Sv/h),MP-2(��Sv/h),MP-3(��Sv/h),MP-4(��Sv/h),MP-5(��Sv/h),MP-6(��Sv/h),MP-7(��Sv/h),MP-8(��Sv/h),����,����(m/s),���J
2021/03/25,00:00,0.633,0.929,0.590,1.150,0.816,0.373,0.654,0.612,��,2.8,��
2021/03/25,00:10,0.634,0.928,0.589,1.151,0.814,0.371,0.653,0.613,��,2.8,��
2021/03/25,00:20,0.632,0.927,0.590,1.148,0.815,0.372,0.654,0.613,��,4.2,��
2021/03/25,00:30,0.632,0.927,0.587,1.147,0.813,0.372,0.653,0.613,��,4.7,��
2021/03/25,00:40,0.632,0.929,0.589,1.149,0.813,0.372,0.654,0.614,��,6.5,��
2021/03/25,00:50,0.632,0.928,0.586,1.149,0.817,0.371,0.653,0.612,��,6.1,��
2021/03/25,01:00,0.633,0.928,0.587,1.148,0.814,0.371,0.653,0.613,��쐼,4.3,��
2021/03/25,01:10,0.632,0.926,0.590,1.147,0.813,0.372,0.653,0.613,��쐼,3.5,��
2021/03/25,01:20,0.632,0.927,0.587,1.147,0.815,0.373,0.653,0.613,�쐼,3.2,��
2021/03/25,01:30,0.632,0.927,0.589,1.150,0.817,0.372,0.652,0.612,�쐼,2.8,��
2021/03/25,01:40,0.631,0.927,0.590,1.149,0.815,0.372,0.653,0.613,���쐼,2.8,��
2021/03/25,01:50,0.632,0.929,0.588,1.148,0.815,0.372,0.654,0.613,�쐼,3.9,��
2021/03/25,02:00,0.632,0.926,0.589,1.146,0.812,0.372,0.652,0.613,��쐼,2.9,��
2021/03/25,02:10,0.633,0.926,0.588,1.147,0.815,0.373,0.653,0.613,��쐼,2.3,��
2021/03/25,02:20,0.631,0.925,0.589,1.147,0.816,0.372,0.653,0.612,��,2.6,��
2021/03/25,02:30,0.632,0.925,0.591,1.148,0.815,0.372,0.654,0.613,��,2.6,��
2021/03/25,02:40,0.631,0.926,0.588,1.149,0.813,0.370,0.653,0.615,��쓌,3.2,��
2021/03/25,02:50,0.631,0.926,0.587,1.150,0.814,0.372,0.655,0.613,��,4.1,��
2021/03/25,03:00,0.632,0.926,0.587,1.150,0.814,0.372,0.653,0.613,��,4.7,��
2021/03/25,03:10,0.630,0.925,0.588,1.147,0.814,0.372,0.654,0.613,��,4.9,��
2021/03/25,03:20,0.633,0.927,0.589,1.149,0.814,0.372,0.654,0.613,��,4.9,��
2021/03/25,03:30,0.633,0.926,0.588,1.151,0.814,0.372,0.654,0.613,��,4.4,��
2021/03/25,03:40,0.633,0.928,0.587,1.148,0.813,0.372,0.652,0.611,��,4.6,��
2021/03/25,03:50,0.633,0.926,0.588,1.149,0.814,0.372,0.653,0.613,��,5.4,��
2021/03/25,04:00,0.632,0.926,0.588,1.150,0.813,0.372,0.653,0.613,��,5.2,��
2021/03/25,04:10,0.632,0.926,0.589,1.151,0.812,0.372,0.653,0.613,��,5.2,��
2021/03/25,04:20,0.631,0.926,0.589,1.149,0.817,0.371,0.652,0.612,��,4.8,��
2021/03/25,04:30,0.631,0.926,0.590,1.147,0.813,0.371,0.653,0.613,��쐼,3.7,��
2021/03/25,04:40,0.632,0.929,0.587,1.149,0.813,0.372,0.653,0.613,��,3.7,��
2021/03/25,04:50,0.632,0.926,0.588,1.148,0.813,0.371,0.653,0.613,��쐼,4.6,��
2021/03/25,05:00,0.632,0.927,0.590,1.149,0.813,0.371,0.653,0.613,��,4.3,��
2021/03/25,05:10,0.632,0.926,0.589,1.148,0.813,0.373,0.654,0.612,��,4.0,��
2021/03/25,05:20,0.632,0.927,0.587,1.148,0.814,0.373,0.653,0.611,��,4.0,��
2021/03/25,05:30,0.631,0.925,0.588,1.149,0.814,0.372,0.654,0.613,��,3.9,��
2021/03/25,05:40,0.631,0.925,0.588,1.148,0.813,0.371,0.654,0.612,��쓌,3.4,��
2021/03/25,05:50,0.631,0.927,0.587,1.151,0.813,0.371,0.653,0.612,��,1.9,��
2021/03/25,06:00,0.631,0.927,0.589,1.149,0.815,0.371,0.653,0.613,��쐼,2.5,��
2021/03/25,06:10,0.630,0.926,0.589,1.148,0.812,0.371,0.654,0.612,��쐼,4.0,��
2021/03/25,06:20,0.629,0.926,0.588,1.149,0.814,0.371,0.655,0.614,��쐼,3.4,��
2021/03/25,06:30,0.631,0.926,0.589,1.148,0.814,0.372,0.654,0.613,��쐼,2.8,��
2021/03/25,06:40,0.632,0.927,0.588,1.151,0.815,0.372,0.652,0.614,�쐼,2.3,��
2021/03/25,06:50,0.632,0.927,0.590,1.149,0.814,0.371,0.653,0.613,��,1.9,��
2021/03/25,07:00,0.632,0.929,0.589,1.150,0.814,0.371,0.653,0.614,�k��,3.5,��
2021/03/25,07:10,0.632,0.928,0.590,1.149,0.814,0.372,0.654,0.613,�k��,2.5,��
2021/03/25,07:20,0.632,0.927,0.588,1.148,0.815,0.371,0.654,0.615,�k�k��,3.9,�L
2021/03/25,07:30,0.632,0.928,0.588,1.149,0.813,0.371,0.654,0.613,�k�k��,3.1,��
2021/03/25,07:40,0.634,0.928,0.587,1.149,0.816,0.371,0.652,0.613,�k�k��,3.3,��
2021/03/25,07:50,0.631,0.929,0.588,1.151,0.814,0.372,0.653,0.615,�k��,3.4,��
2021/03/25,08:00,0.632,0.929,0.588,1.150,0.814,0.372,0.653,0.615,�k��,3.6,��
2021/03/25,08:10,0.632,0.931,0.590,1.149,0.815,0.372,0.653,0.613,�k��,3.2,��
2021/03/25,08:20,0.632,0.929,0.591,1.152,0.816,0.371,0.653,0.614,�k��,1.2,��
2021/03/25,08:30,0.630,0.926,0.589,1.149,0.816,0.371,0.653,0.613,�k,0.8,��
2021/03/25,08:40,0.633,0.929,0.589,1.150,0.816,0.372,0.653,0.614,-,CALM,��
2021/03/25,08:50,0.633,0.930,0.589,1.149,0.818,0.371,0.653,0.614,�k,0.6,��
2021/03/25,09:00,0.634,0.931,0.590,1.152,0.816,0.371,0.653,0.615,�k�k��,0.8,��
2021/03/25,09:10,0.634,0.930,0.590,1.150,0.816,0.373,0.651,0.615,-,CALM,��
2021/03/25,09:20,0.635,0.929,0.589,1.148,0.816,0.372,0.652,0.614,-,CALM,��
2021/03/25,09:30,0.635,0.926,0.589,1.151,0.816,0.372,0.652,0.612,�쓌,1.5,��
2021/03/25,09:40,0.634,0.929,0.589,1.150,0.818,0.371,0.655,0.611,��쓌,2.0,��
2021/03/25,09:50,0.634,0.930,0.591,1.150,0.819,0.370,0.654,0.613,��쓌,2.8,��
2021/03/25,10:00,0.634,0.927,0.589,1.151,0.818,0.372,0.652,0.614,��쓌,3.1,��
2021/03/25,10:10,0.633,0.924,0.589,1.150,0.816,0.371,0.653,0.614,��,2.9,��
2021/03/25,10:20,0.633,0.929,0.589,1.152,0.817,0.370,0.652,0.614,��쓌,3.8,��
2021/03/25,10:30,0.634,0.928,0.590,1.153,0.816,0.369,0.652,0.613,��쓌,5.0,��
2021/03/25,10:40,0.632,0.927,0.589,1.151,0.815,0.369,0.652,0.612,��쓌,5.9,��
2021/03/25,10:50,0.632,0.928,0.589,1.152,0.816,0.370,0.651,0.612,��,7.2,��
2021/03/25,11:00,0.634,0.929,0.589,1.150,0.816,0.369,0.655,0.613,��,6.4,��
2021/03/25,11:10,0.631,0.928,0.587,1.152,0.814,0.371,0.652,0.613,��,8.2,��
2021/03/25,11:20,0.633,0.928,0.587,1.152,0.815,0.370,0.656,0.611,��,9.7,��
2021/03/25,11:30,0.633,0.928,0.589,1.153,0.816,0.371,0.654,0.614,��쓌,11.6,��
2021/03/25,11:40,0.631,0.930,0.589,1.152,0.816,0.371,0.651,0.612,��쓌,11.1,��
2021/03/25,11:50,0.634,0.930,0.588,1.152,0.817,0.370,0.655,0.612,��쓌,10.7,��
2021/03/25,12:00,0.632,0.931,0.589,1.153,0.815,0.371,0.653,0.613,��쓌,10.3,��
2021/03/25,12:10,0.633,0.932,0.589,1.151,0.816,0.371,0.653,0.613,��쓌,10.5,��
2021/03/25,12:20,0.634,0.929,0.587,1.154,0.816,0.371,0.654,0.611,��쓌,10.9,��
2021/03/25,12:30,0.636,0.932,0.588,1.150,0.817,0.372,0.655,0.612,��쓌,8.2,��
2021/03/25,12:40,0.633,0.932,0.589,1.150,0.816,0.371,0.654,0.612,��,7.2,��
2021/03/25,12:50,0.635,0.932,0.586,1.153,0.816,0.371,0.655,0.612,��,8.8,��
2021/03/25,13:00,0.633,0.930,0.587,1.153,0.816,0.371,0.655,0.612,��,8.7,��
2021/03/25,13:10,0.633,0.931,0.589,1.152,0.816,0.373,0.654,0.612,��,8.2,��
2021/03/25,13:20,0.634,0.930,0.591,1.152,0.817,0.370,0.656,0.612,��,8.1,��
2021/03/25,13:30,0.635,0.929,0.590,1.153,0.816,0.372,0.654,0.613,��,9.2,��
2021/03/25,13:40,0.634,0.930,0.588,1.154,0.815,0.371,0.654,0.612,��,12.2,��
2021/03/25,13:50,0.635,0.932,0.589,1.156,0.818,0.371,0.655,0.612,��,10.8,��
2021/03/25,14:00,0.634,0.931,0.589,1.153,0.817,0.371,0.655,0.612,��,11.3,��
2021/03/25,14:10,0.636,0.933,0.589,1.153,0.816,0.372,0.655,0.611,��,11.3,��
2021/03/25,14:20,0.636,0.928,0.591,1.154,0.817,0.372,0.654,0.613,��,11.8,��
2021/03/25,14:30,0.633,0.931,0.589,1.154,0.816,0.372,0.655,0.614,��,13.0,��
2021/03/25,14:40,0.635,0.930,0.590,1.152,0.817,0.372,0.655,0.613,��,10.8,��
2021/03/25,14:50,0.633,0.930,0.590,1.153,0.817,0.372,0.657,0.615,��,10.8,��
2021/03/25,15:00,0.635,0.930,0.589,1.155,0.815,0.371,0.655,0.614,��,10.5,��
2021/03/25,15:10,0.635,0.932,0.590,1.152,0.817,0.372,0.656,0.614,��,11.0,��
2021/03/25,15:20,0.634,0.933,0.590,1.152,0.818,0.373,0.655,0.614,��,10.6,��
2021/03/25,15:30,0.635,0.931,0.589,1.154,0.815,0.372,0.654,0.614,��,8.6,��
2021/03/25,15:40,0.634,0.931,0.589,1.155,0.818,0.372,0.655,0.612,��,8.9,��
2021/03/25,15:50,0.633,0.934,0.589,1.155,0.816,0.373,0.657,0.613,��,8.0,��
2021/03/25,16:00,0.635,0.932,0.590,1.156,0.816,0.375,0.657,0.614,��,9.1,��
2021/03/25,16:10,0.635,0.931,0.591,1.155,0.819,0.373,0.654,0.613,��,9.1,��
2021/03/25,16:20,0.637,0.932,0.592,1.153,0.817,0.373,0.654,0.613,��,9.3,��
2021/03/25,16:30,0.638,0.932,0.592,1.157,0.816,0.373,0.655,0.614,��,9.5,��
2021/03/25,16:40,0.637,0.934,0.591,1.155,0.815,0.374,0.654,0.616,��,9.4,��
2021/03/25,16:50,0.638,0.932,0.591,1.153,0.818,0.372,0.656,0.613,��,8.8,��
2021/03/25,17:00,0.637,0.932,0.591,1.154,0.817,0.373,0.654,0.613,��,7.3,��
2021/03/25,17:10,0.638,0.932,0.592,1.154,0.816,0.375,0.654,0.614,��,7.3,��
2021/03/25,17:20,0.639,0.929,0.592,1.153,0.817,0.373,0.655,0.615,��,7.6,��
2021/03/25,17:30,0.636,0.932,0.593,1.155,0.818,0.374,0.654,0.616,��,8.2,��
2021/03/25,17:40,0.638,0.931,0.593,1.152,0.819,0.373,0.655,0.616,��,8.2,��
2021/03/25,17:50,0.637,0.932,0.593,1.155,0.817,0.374,0.655,0.616,��,8.5,��
2021/03/25,18:00,0.638,0.934,0.591,1.155,0.816,0.374,0.653,0.616,��,8.2,��
2021/03/25,18:10,0.638,0.935,0.592,1.152,0.818,0.375,0.654,0.615,��,6.5,��
2021/03/25,18:20,0.638,0.937,0.591,1.153,0.817,0.374,0.655,0.616,�k�k��,1.7,��
2021/03/25,18:30,0.638,0.935,0.591,1.152,0.818,0.374,0.655,0.616,�k,3.6,��
2021/03/25,18:40,0.637,0.935,0.592,1.156,0.817,0.374,0.656,0.617,�k�k��,2.5,��
2021/03/25,18:50,0.639,0.934,0.593,1.154,0.819,0.375,0.655,0.616,�k,3.5,��
2021/03/25,19:00,0.637,0.935,0.591,1.154,0.820,0.374,0.656,0.618,�k,2.9,��
2021/03/25,19:10,0.637,0.936,0.591,1.155,0.818,0.373,0.655,0.615,�k,3.0,��
2021/03/25,19:20,0.638,0.934,0.592,1.156,0.819,0.375,0.655,0.615,�k�k��,2.0,��
2021/03/25,19:30,0.637,0.935,0.593,1.155,0.819,0.373,0.656,0.616,�k,1.5,��
2021/03/25,19:40,0.637,0.933,0.591,1.155,0.820,0.373,0.656,0.617,���k��,2.0,��
2021/03/25,19:50,0.634,0.933,0.593,1.157,0.822,0.376,0.657,0.614,��,2.9,��
2021/03/25,20:00,0.637,0.934,0.592,1.157,0.820,0.374,0.657,0.614,��,2.5,��
2021/03/25,20:10,0.637,0.933,0.591,1.154,0.819,0.373,0.656,0.616,��,4.6,��
2021/03/25,20:20,0.637,0.935,0.592,1.155,0.820,0.376,0.656,0.617,��,5.9,��
2021/03/25,20:30,0.637,0.933,0.592,1.156,0.819,0.375,0.656,0.617,���k��,6.8,��
2021/03/25,20:40,0.637,0.934,0.593,1.156,0.819,0.375,0.656,0.616,�k��,7.0,��
2021/03/25,20:50,0.638,0.934,0.592,1.155,0.820,0.374,0.656,0.616,�k��,5.1,��
2021/03/25,21:00,0.637,0.935,0.594,1.155,0.821,0.376,0.657,0.616,�k��,4.8,��
2021/03/25,21:10,0.638,0.935,0.593,1.155,0.819,0.376,0.657,0.616,���k��,5.9,��
2021/03/25,21:20,0.637,0.935,0.592,1.157,0.820,0.375,0.655,0.616,���k��,5.9,��
2021/03/25,21:30,0.638,0.935,0.593,1.155,0.818,0.374,0.657,0.617,���k��,6.5,��
2021/03/25,21:40,0.637,0.934,0.591,1.154,0.820,0.374,0.655,0.616,���k��,4.9,��
2021/03/25,21:50,0.636,0.932,0.592,1.154,0.821,0.373,0.655,0.614,���k��,3.5,��
2021/03/25,22:00,0.636,0.934,0.590,1.155,0.819,0.375,0.656,0.616,���k��,3.2,��
2021/03/25,22:10,0.638,0.932,0.593,1.155,0.820,0.374,0.657,0.616,���k��,3.6,��
2021/03/25,22:20,0.636,0.932,0.592,1.155,0.818,0.373,0.656,0.616,�k�k��,2.9,��
2021/03/25,22:30,0.639,0.932,0.592,1.153,0.819,0.373,0.657,0.617,�k�k��,4.0,��
2021/03/25,22:40,0.638,0.935,0.592,1.156,0.819,0.375,0.658,0.616,���k��,3.8,��
2021/03/25,22:50,0.637,0.935,0.591,1.156,0.819,0.373,0.657,0.616,���k��,4.4,��
2021/03/25,23:00,0.638,0.932,0.591,1.155,0.819,0.374,0.656,0.617,���k��,3.9,��
2021/03/25,23:10,0.636,0.932,0.591,1.152,0.817,0.374,0.656,0.615,�k��,3.3,��
2021/03/25,23:20,0.638,0.934,0.591,1.155,0.820,0.374,0.655,0.616,�k��,3.9,��
2021/03/25,23:30,0.636,0.933,0.591,1.156,0.820,0.374,0.657,0.616,�k�k��,3.3,��
2021/03/25,23:40,0.637,0.932,0.592,1.155,0.819,0.374,0.659,0.616,�k��,3.6,��
2021/03/25,23:50,0.636,0.932,0.591,1.157,0.820,0.373,0.655,0.617,�k�k��,3.8,��
